Simultaneous Nadir Overpasses (SNOs) Predictions

Prediction of SNOs between AQUA and METOP-A Satellite Orbit:

Table of predicted SNOs for the next 14.0 days since TLE Epoch: 9/30/2016
Index Date (AQUA) Time (AQUA) Lat,Lon (AQUA) SZA (AQUA ) Date (METOP-A) Time (METOP-A) Lat,Lon (METOP-A) SZA (METOP-A ) Distance(km) Time Diff (sec)
1 10/01/2016 18:23:25 73.79,-101.65 77.29 10/01/2016 18:22:14 73.78,-101.64 77.29 0.69 71
2 10/01/2016 19:12:52 -73.88, 65.80 102.61 10/01/2016 19:12:54 -73.85, 65.86 102.63 2.98 2
3 10/01/2016 20:02:21 73.94,-126.71 77.48 10/01/2016 20:03:33 73.91,-126.67 77.45 3.29 72
4 10/04/2016 13:57:41 73.80, -35.25 78.39 10/04/2016 13:56:37 73.78, -35.24 78.37 2.86 64
5 10/04/2016 14:47:07 -73.84, 132.32 101.57 10/04/2016 14:47:17 -73.85, 132.26 101.55 2.56 10
6 10/04/2016 15:36:41 74.16, -60.78 78.79 10/04/2016 15:37:51 74.15, -59.66 78.76 33.78 70
7 10/07/2016 09:31:56 73.78, 31.24 79.44 10/07/2016 09:31:00 73.77, 31.15 79.44 3.18 56
8 10/07/2016 10:21:23 -73.86,-161.30 100.46 10/07/2016 10:21:40 -73.84,-161.35 100.48 2.59 17
9 10/07/2016 11:11:01 74.40, 5.11 80.11 10/07/2016 11:12:08 74.44, 7.48 80.12 70.99 67
10 10/10/2016 05:06:12 73.83, 97.58 80.56 10/10/2016 05:05:22 73.81, 97.65 80.54 3.05 50
11 10/10/2016 05:55:38 -73.85, -94.84 99.41 10/10/2016 05:56:02 -73.88, -94.84 99.38 3.35 24
12 10/13/2016 00:40:25 73.78, 164.12 81.57 10/13/2016 00:39:44 73.79, 164.02 81.58 3.19 41
13 10/13/2016 01:29:52 -73.86, -28.41 98.35 10/13/2016 01:30:24 -73.87, -28.46 98.33 2.09 32




NCC Satellite Simultaneous Nadir Overpasses (SNOs) Prediction Service
